SCOUT A R/B, 1953

Orbit data source: Space-Track

SCOUT A R/B, 1953 is space debris in LEO originally from a launch on Fri, 28 Jan 1966 UTC launched from the Air Force Western Test Range (AFWTR). Debris objects in space refer to the collection of defunct objects orbiting the Earth. Examples of debris include non-operational satellites, rocket bodies, and fragments generated from explosions, collisions, or faulty payload assembly.

Loading next visibility...
SCOUT A R/B details
Identifier
1953, 1966-005B
Orbit
LEO
Last TLE update6 hours ago
Origin
Flag of USNASA LaRC (US)
ManufacturerABL
MissionSpacecraft
Bus & MotorALTAIR, Unknown motor
Mass33 kg wet, 33 kg dry
Launch date (UTC)
1966-01-28 (59 years ago)
Launch vehicleUnknown
Launch site
Air Force Western Test Range (AFWTR)
Object type
Payload
Rocket body
Debris
Shape & HBRCyl, 1.5 m
Radar Cross Section0.687 m², Medium (>0.1 m² and < 1m²)

Expand to show TLE details & history

TLE from 6 hours ago
0 SCOUT A R/B
1  1953U 66005B   25044.36293994  .00000134  00000-0  12976-3 0  9991
2  1953  90.1586 345.0600 0226827 194.3535 165.1112 13.64939768936612
Epoch: 2025-02-13T08:42Z
Definitive object data (Epoch: 2025-02-13T08:42:38.01Z)
Latitude-0.00003°
Longitude70.76149°
Altitude1,183.174 km
Speed7.182 km/s
True Right ascension23h 00m 14s
True Declination0° 00' 00"
Sunlit
Object was in daylight at TLE epoch
Visualization TLE readout
Latitude-49.43248°
Longitude-109.41842°
Altitude899.37 km
Speed7.47 km/s
Apparent Right ascension08h 17m 19s
Apparent Declination-52° 15' 59"
Sunlit
Object is in daylight
Visualization observer readout
Local Sidereal Time17:41:23
Azimuth231.951° WSW
Elevation-60.73°
Doppler factor1
Orbital elements
Apogee altitude1,182.512 km
Perigee altitude847.128 km
Semi-major axis7,392.957 km
Eccentricity0.0226827
Inclination90.1586°
RAAN345.06°
Arg. of periapsis194.3535°
True anomaly165.76122°
Mean anomaly165.1112°
Eccentric anomaly165.43796°
Mean motion3.41441 °/min
BSTAR0.00012976
Orbital period105.44 mins
Loading maneuver chart data...
Loading historical data...
Loading historical data...
Loading historical data...
Loading historical data...
Loading historical data...
Loading historical data...
Loading historical data...

SCOUT A R/B Visibility forecast

Observer location: undefined°, undefined

Span
Click to sort rows by Start time (UTC) header in descending order
Start Az.
Max El. time (UTC)
Max El. Az.
Max El.
End time (UTC)
End Az.
12 mins2025-02-13 19:22:14.708Z141.31° SSE2025-02-13 19:28:14.708Z85.142° E30.824°2025-02-13 19:34:14.708Z17.179° NNE
12 mins2025-02-13 21:08:14.708Z210.773° SW2025-02-13 21:14:14.708Z282.944° WNW32.565°2025-02-13 21:20:14.708Z342.231° N
10 mins2025-02-14 08:12:14.708Z5.673° NNE2025-02-14 08:17:14.708Z146.28° SSE43.93°2025-02-14 08:22:14.708Z179.772° S
|